{"data":{"norad_id":62780,"intl_designator":"2025-015Y","name":"STARLINK-33593","alt_names":[],"object_type":"PAYLOAD","status":"ACTIVE","operator":null,"country":"US","launch_date":"2025-01-21","launch_site_code":"AFWTR","launch_vehicle":null,"mission":null,"orbit_class":"UNKNOWN","rcs_meters":null,"size_class":null,"mass_kg":null,"dimensions":null,"purposes":["comms"],"wikipedia_slug":null,"has_3d_model":false,"image_url":null,"decayed_at":null,"tle_current":{"epoch":"2026-05-25T04:00:03.998880Z","epoch_age_seconds":67569,"freshness":"FRESH","line1":"1 62780U 25015Y   26145.16671295 -.00018037  00000+0 -52400-3 0  9995","line2":"2 62780  53.1602 326.9262 0001050  52.0700 332.2069 15.34397185  5806","mean_motion":15.34397185,"eccentricity":0.000105,"inclination_deg":53.1602,"raan_deg":326.9262,"arg_perigee_deg":52.07,"mean_anomaly_deg":332.2069,"bstar":-0.000524,"rev_number":580,"period_min":93.847930254121,"perigee_km":461.9933178894,"apogee_km":463.42989609687,"semimajor_km":6840.8486069931,"source":"CELESTRAK","updated_at":"2026-05-25T13:38:19.748152Z"}}}